Location: Eitze
(52.9840°N, 9.6894°E)
Time: 00:18:06
(UTC+00:00)

COSMOS 2406 - Pass Details

Date: 19 May 2025
Orbit: 845 x 859 km, 71.0° (Epoch: 15 June)

Event Time Altitude Azimuth Distance (km) Brightness Sun altitude
Exits shadow 21:59:08 21° 179° (S) 1,805 4.3 -15.1°
Maximum altitude 22:02:42 51° 112° (ESE) 1,066 3.5 -15.2°
Drops below altitude 10° 22:08:13 10° 39° (NE) 2,492 6.1 -15.5°
Sets 22:10:44 0° 34° (NE) 3,434 7.0 -15.6°
